This demonstration page uses our WeatherBlox Daily Observations layout. Learn more.

38.80484, -77.04692

Hourly Observations for September 20, 2016

Temp ( °F °C ) Dew Point ( °F °C ) Humidity (%) Winds ( mph kmh ) Pressure ( in mb ) Visibility ( mi km ) Precip ( " mm )
12:15 am 00:15 Cloudy 73 22.8 71 21.7 94 94 NNE 8 13 30.09 1019 10 16.0934 0 0
12:52 am 00:52 Cloudy 73 22.8 71 21.7 94 94 NNE 7 11 30.08 1019 10 16.0934 0 0
12:59 am 00:59 Mostly Cloudy 73 22.8 71 21.7 94 94 NE 5 7 30.09 1019 10 16.0934 0 0
1:06 am 01:06 Cloudy 72 22 72 22 100 100 NE 6 9 30.09 1019 10 16.0934 0 0
1:52 am 01:52 Mostly Cloudy 72 22.2 70 21.1 94 94 NNE 6 9 30.06 1018 10 16.0934 0 0
2:10 am 02:10 Cloudy 72 22 70 21 94 94 NNE 6 9 30.06 1018 10 16.0934 0 0
2:52 am 02:52 Mostly Cloudy 72 22.2 70 21.1 94 94 N 7 11 30.06 1018 10 16.0934 0 0
3:52 am 03:52 Cloudy 72 22.2 69 20.6 91 91 NNE 8 13 30.06 1018 10 16.0934 0 0
4:47 am 04:47 Cloudy 72 22 70 21 94 94 NNE 7 11 30.06 1018 10 16.0934 0 0
4:52 am 04:52 Cloudy 71 21.7 69 20.6 94 94 NNE 7 11 30.06 1018 10 16.0934 0 0
5:52 am 05:52 Cloudy 71 21.7 69 20.6 94 94 NNE 10 17 30.07 1018 10 16.0934 0 0
6:52 am 06:52 Cloudy 71 21.7 69 20.6 94 94 NNE 9 15 30.09 1019 10 16.0934 0 0
7:52 am 07:52 Mostly Cloudy 71 21.7 68 20 90 90 N 10 17 30.1 1019 10 16.0934 0 0
8:52 am 08:52 Cloudy 72 22.2 68 20 87 87 NNE 13 20 30.11 1020 10 16.0934 0 0
9:07 am 09:07 Cloudy 72 22.2 69 20.6 91 91 N 9 15 30.12 1020 10 16.0934 0 0
9:52 am 09:52 Cloudy 72 22.2 68 20 87 87 NNE 10 17 30.13 1020 10 16.0934 0 0
10:05 am 10:05 Cloudy 73 22.8 68 20 84 84 NNE 12 19 30.15 1021 10 16.0934 0 0
10:52 am 10:52 Cloudy 75 23.9 69 20.6 82 82 NE 13 20 30.14 1021 10 16.0934 0 0
11:06 am 11:06 Cloudy 75 23.9 69 20.6 82 82 NNE 12 19 30.15 1021 10 16.0934 0 0
11:52 am 11:52 Cloudy 76 24.4 68 20 77 77 NNE 12 19 30.13 1020 10 16.0934 0 0
12:52 pm 12:52 Cloudy 77 25 68 20 74 74 NE 12 19 30.11 1020 10 16.0934 0 0
1:52 pm 13:52 Cloudy 79 26.1 69 20.6 72 72 ENE 9 15 30.11 1020 10 16.0934 0 0
2:52 pm 14:52 Cloudy 79 26.1 69 20.6 72 72 ENE 8 13 30.1 1019 10 16.0934 0 0
3:25 pm 15:25 Mostly Cloudy 79 26.1 69 20.6 72 72 ENE 8 13 30.12 1020 10 16.0934 0 0
3:43 pm 15:43 Mostly Cloudy 79 26.1 69 20.6 72 72 ENE 9 15 30.09 1019 10 16.0934 0 0
3:52 pm 15:52 Mostly Cloudy 79 26.1 68 20 69 69 ENE 9 15 30.09 1019 10 16.0934 0 0
4:52 pm 16:52 Mostly Cloudy 79 26.1 68 20 69 69 NE 10 17 30.09 1019 10 16.0934 0 0
5:52 pm 17:52 Mostly Cloudy 79 26.1 68 20 69 69 NE 9 15 30.09 1019 10 16.0934 0 0
6:52 pm 18:52 Cloudy 78 25.6 69 20.6 74 74 NE 10 17 30.1 1019 10 16.0934 0 0
7:52 pm 19:52 Cloudy 77 25 69 20.6 77 77 E 5 7 30.11 1020 10 16.0934 0 0
8:52 pm 20:52 Mostly Cloudy 76 24.4 70 21.1 82 82 ENE 7 11 30.12 1020 10 16.0934 0 0
9:52 pm 21:52 Mostly Cloudy 75 23.9 70 21.1 84 84 NNE 6 9 30.11 1020 10 16.0934 0 0
10:52 pm 22:52 Cloudy 76 24.4 70 21.1 82 82 NNE 6 9 30.11 1020 10 16.0934 0 0
11:52 pm 23:52 Cloudy 75 23.9 71 21.7 88 88 NE 5 7 30.11 1020 10 16.0934 0 0

Powered by AerisWeather